Weather History for KHJH - October, 2012

Change the Weather History Date:

Saturday, October 6, 2012

  Actual Average Record
Temperature  
Mean Temperature 40 °F -  
Max Temperature 48 °F 68 °F 93 °F (1963)
Min Temperature 31 °F 44 °F 22 °F (1952)
Degree Days  
Heating Degree Days 26    
Moisture  
Dew Point 24 °F    
Average Humidity 58    
Maximum Humidity 87    
Minimum Humidity 29    
Precipitation  
Precipitation 0.00 in - - ()
Sea Level Pressure  
Sea Level Pressure 30.35 in    
Wind  
Wind Speed 4 mph (NNW)    
Max Wind Speed 13 mph    
Max Gust Speed 18 mph    
Visibility 10 miles    
Events      
Averages and records for this station are not official NWS values.
T = Trace of Precipitation, MM = Missing Value Source: NWS Daily Summary

Daily Weather History Graph

Daily Weather History Graph

Search for Another Location

Airport or City:

Trip Planner

Search our weather history database for the weather conditions in past years. The results will help you decide how hot, cold, wet, or windy it might be!

Date:

Astronomy

Oct. 06, 2012 Rise Set
Actual Time 7:32 AM CDT 7:03 PM CDT
Civil Twilight 7:05 AM CDT 7:30 PM CDT
Nautical Twilight 6:33 AM CDT 8:02 PM CDT
Astronomical Twilight 6:02 AM CDT 8:33 PM CDT
Moon 11:20 PM CDT (10/6) 1:27 PM CDT (10/6)
Length of Visible Light 12h 25m
Length of Day
11h 31m
Waning Gibbous, 65% of the Moon is Illuminated
Oct 6
Waning Gibbous
Oct 8
Last Quarter
Oct 15
New
Oct 21
First Quarter
Oct 29
Full

Hourly Weather History & Observations

Time (CDT) Temp. Windchill Dew Point Humidity Pressure Visibility Wind Dir Wind Speed Gust Speed Precip Events Conditions
12:15 AM 36.1 °F 32.3 °F 31.8 °F 84% 30.32 in 10.0 mi NNW 4.6 mph - N/A   Clear
12:35 AM 37.6 °F 33.1 °F 32.0 °F 80% 30.31 in 10.0 mi NNW 5.8 mph - N/A   Clear
12:55 AM 38.3 °F 35.9 °F 31.8 °F 77% 30.32 in 10.0 mi NW 3.5 mph - N/A   Clear
1:15 AM 38.5 °F 36.1 °F 31.1 °F 75% 30.31 in 10.0 mi NNW 3.5 mph - N/A   Clear
1:35 AM 39.2 °F 37.0 °F 30.2 °F 70% 30.31 in 10.0 mi NNW 3.5 mph - N/A   Clear
1:55 AM 39.2 °F - 30.0 °F 70% 30.33 in 10.0 mi Calm Calm - N/A   Clear
2:15 AM 38.5 °F - 30.4 °F 73% 30.34 in 10.0 mi Calm Calm - N/A   Clear
2:35 AM 37.6 °F - 29.8 °F 74% 30.34 in 10.0 mi Calm Calm - N/A   Clear
2:55 AM 35.8 °F - 30.0 °F 80% 30.34 in 10.0 mi Calm Calm - N/A   Clear
3:15 AM 35.6 °F - 30.2 °F 81% 30.34 in 10.0 mi Calm Calm - N/A   Clear
3:35 AM 34.7 °F - 30.0 °F 83% 30.33 in 10.0 mi Calm Calm - N/A   Clear
3:55 AM 33.8 °F - 30.0 °F 86% 30.33 in 10.0 mi Calm Calm - N/A   Clear
4:35 AM 34.0 °F - 29.8 °F 85% 30.33 in 10.0 mi Calm Calm - N/A   Clear
4:55 AM 33.8 °F - 29.8 °F 85% 30.34 in 10.0 mi Calm Calm - N/A   Clear
5:15 AM 34.2 °F - 30.2 °F 85% 30.33 in 10.0 mi Calm Calm - N/A   Clear
5:35 AM 33.8 °F - 30.2 °F 87% 30.34 in 10.0 mi Calm Calm - N/A   Clear
5:55 AM 33.8 °F - 30.0 °F 86% 30.34 in 10.0 mi Calm Calm - N/A   Clear
6:15 AM 33.6 °F - 30.2 °F 87% 30.35 in 10.0 mi Calm Calm - N/A   Clear
6:35 AM 33.8 °F - 30.0 °F 86% 30.35 in 10.0 mi Calm Calm - N/A   Clear
6:55 AM 34.2 °F - 29.7 °F 84% 30.36 in 10.0 mi Calm Calm - N/A   Clear
7:15 AM 34.7 °F - 29.3 °F 81% 30.36 in 10.0 mi Calm Calm - N/A   Clear
7:35 AM 35.2 °F 32.4 °F 28.6 °F 77% 30.36 in 10.0 mi North 3.5 mph - N/A   Clear
7:55 AM 36.1 °F 31.4 °F 27.3 °F 70% 30.36 in 10.0 mi North 5.8 mph - N/A   Clear
8:15 AM 36.5 °F 33.9 °F 27.1 °F 69% 30.37 in 10.0 mi North 3.5 mph - N/A   Clear
8:35 AM 36.7 °F - 27.3 °F 69% 30.38 in 10.0 mi Calm Calm - N/A   Clear
8:55 AM 37.4 °F 32.8 °F 26.2 °F 64% 30.38 in 10.0 mi North 5.8 mph - N/A   Scattered Clouds
9:15 AM 38.3 °F 33.9 °F 25.2 °F 59% 30.39 in 10.0 mi North 5.8 mph - N/A   Mostly Cloudy
9:35 AM 39.4 °F 36.1 °F 24.8 °F 56% 30.40 in 10.0 mi North 4.6 mph - N/A   Scattered Clouds
9:55 AM 41.2 °F 36.6 °F 23.4 °F 49% 30.40 in 10.0 mi NNE 6.9 mph - N/A   Clear
10:15 AM 41.4 °F 36.2 °F 22.8 °F 48% 30.40 in 10.0 mi NNE 8.1 mph - N/A   Scattered Clouds
10:35 AM 41.5 °F 36.4 °F 22.6 °F 47% 30.40 in 10.0 mi North 8.1 mph - N/A   Scattered Clouds
10:55 AM 42.1 °F 37.1 °F 23.2 °F 47% 30.40 in 10.0 mi North 8.1 mph - N/A   Mostly Cloudy
11:15 AM 42.3 °F 35.5 °F 22.6 °F 46% 30.40 in 10.0 mi NNE 12.7 mph - N/A   Scattered Clouds
11:35 AM 43.0 °F 37.7 °F 23.0 °F 45% 30.40 in 10.0 mi NNW 9.2 mph - N/A   Scattered Clouds
11:55 AM 43.2 °F 37.9 °F 22.8 °F 45% 30.40 in 10.0 mi North 9.2 mph - N/A   Mostly Cloudy
12:15 PM 43.9 °F 38.8 °F 22.1 °F 42% 30.39 in 10.0 mi NNE 9.2 mph - N/A   Mostly Cloudy
12:35 PM 45.1 °F 40.8 °F 21.9 °F 40% 30.39 in 10.0 mi North 8.1 mph - N/A   Scattered Clouds
12:55 PM 45.1 °F 40.8 °F 22.1 °F 40% 30.38 in 10.0 mi North 8.1 mph - N/A   Scattered Clouds
1:15 PM 46.0 °F 42.5 °F 22.1 °F 39% 30.38 in 10.0 mi NNW 6.9 mph - N/A   Scattered Clouds
1:35 PM 46.8 °F - 21.4 °F 37% 30.36 in 10.0 mi North 8.1 mph 16.1 mph N/A   Scattered Clouds
1:55 PM 46.6 °F - 20.3 °F 35% 30.36 in 10.0 mi NNW 8.1 mph - N/A   Mostly Cloudy
2:15 PM 47.3 °F - 18.9 °F 32% 30.35 in 10.0 mi North 10.4 mph - N/A   Mostly Cloudy
2:35 PM 46.9 °F - 17.4 °F 31% 30.34 in 10.0 mi North 9.2 mph 18.4 mph N/A   Scattered Clouds
2:55 PM 48.0 °F - 16.9 °F 29% 30.34 in 10.0 mi NNW 8.1 mph 16.1 mph N/A   Clear
3:15 PM 47.3 °F - 16.5 °F 29% 30.34 in 10.0 mi North 11.5 mph 17.3 mph N/A   Scattered Clouds
3:35 PM 46.4 °F 41.1 °F 15.8 °F 29% 30.34 in 10.0 mi North 11.5 mph 17.3 mph N/A   Mostly Cloudy
3:55 PM 46.2 °F 41.7 °F 16.7 °F 31% 30.34 in 10.0 mi North 9.2 mph - N/A   Overcast
4:15 PM 46.2 °F 41.2 °F 17.8 °F 32% 30.34 in 10.0 mi NNW 10.4 mph 16.1 mph N/A   Overcast
4:35 PM 45.9 °F 40.8 °F 18.7 °F 34% 30.34 in 10.0 mi NNW 10.4 mph - N/A   Overcast
4:55 PM 45.7 °F 40.6 °F 19.2 °F 35% 30.34 in 10.0 mi NNW 10.4 mph - N/A   Mostly Cloudy
5:15 PM 45.9 °F 41.2 °F 19.4 °F 35% 30.34 in 10.0 mi NNW 9.2 mph - N/A   Overcast
5:35 PM 45.9 °F 41.7 °F 19.0 °F 34% 30.34 in 10.0 mi NW 8.1 mph - N/A   Overcast
6:15 PM 45.5 °F 41.8 °F 19.0 °F 35% 30.33 in 10.0 mi NW 6.9 mph - N/A   Scattered Clouds
6:35 PM 45.1 °F 42.0 °F 19.4 °F 36% 30.33 in 10.0 mi WNW 5.8 mph - N/A   Mostly Cloudy
6:55 PM 45.0 °F 41.2 °F 18.3 °F 35% 30.33 in 10.0 mi NW 6.9 mph - N/A   Mostly Cloudy
7:15 PM 43.9 °F 40.5 °F 18.0 °F 35% 30.33 in 10.0 mi NW 5.8 mph - N/A   Scattered Clouds
7:35 PM 42.8 °F 39.3 °F 18.7 °F 38% 30.33 in 10.0 mi NW 5.8 mph - N/A   Mostly Cloudy
7:55 PM 42.4 °F 39.6 °F 19.4 °F 40% 30.34 in 10.0 mi NW 4.6 mph - N/A   Mostly Cloudy
8:15 PM 42.1 °F 40.2 °F 19.9 °F 41% 30.34 in 10.0 mi NW 3.5 mph - N/A   Overcast
8:35 PM 41.4 °F 39.4 °F 20.3 °F 43% 30.34 in 10.0 mi NW 3.5 mph - N/A   Mostly Cloudy
8:55 PM 40.1 °F - 21.0 °F 47% 30.35 in 10.0 mi Calm Calm - N/A   Scattered Clouds
9:15 PM 37.6 °F - 21.0 °F 51% 30.34 in 10.0 mi Calm Calm - N/A   Clear
9:35 PM 35.8 °F 31.9 °F 20.5 °F 54% 30.35 in 10.0 mi West 4.6 mph - N/A   Clear
9:55 PM 35.8 °F 31.9 °F 23.9 °F 62% 30.35 in 10.0 mi West 4.6 mph - N/A   Clear
10:15 PM 34.0 °F - 25.2 °F 70% 30.35 in 10.0 mi Calm Calm - N/A   Clear
10:35 PM 33.4 °F - 25.3 °F 72% 30.35 in 10.0 mi Calm Calm - N/A   Clear
10:55 PM 32.0 °F 28.7 °F 26.4 °F 80% 30.35 in 10.0 mi West 3.5 mph - N/A   Clear
11:15 PM 32.2 °F - 27.3 °F 82% 30.35 in 10.0 mi Calm Calm - N/A   Clear
11:35 PM 31.6 °F 28.3 °F 27.5 °F 85% 30.34 in 10.0 mi West 3.5 mph - N/A   Clear
11:55 PM 31.6 °F 27.0 °F 28.0 °F 87% 30.34 in 10.0 mi West 4.6 mph - N/A   Clear